Showing default

CE-SAT 1, 42769

Orbit data source: Space-Track

CE-SAT 1, 42769 is a payload satellite owned by Canon STL (JP) in SSO that was launched on Fri, 23 Jun 2017 UTC via a PSLV-XL launch vehicle from the Sirharikota (SRI). Payload-class satellites include a variety of spacecraft equipped with specific instruments for various scientific and technological missions. These include communications satellites like Starlink; space stations such as the ISS; scientific satellites like the Hubble; Earth observation satellites from companies like Planet Labs, Umbra, and HawkEye 360; GPS; miniature CubeSats for education and research; and military/defense satellites.

Not visible in the next 10 days
Identifier
42769, 2017-036E
Orbit
SSO
Last TLE update
9 hours ago
Origin
Manufacturer
Canon STL
Mission
Operational Commercial Imaging
Bus & Motor
CE-SAT, Unknown motor
Mass
65 kg wet, 65 kg dry
Launch date (UTC)
2017-06-23 (8 years ago)
Launch vehicle
PSLV-XL
Launch site
Sirharikota (SRI)
Object type
Payload
Rocket body
Debris
Shape & HBR
Box, 0.9 m
Radar Cross Section
0.575 m², Medium (>0.1 m² and < 1m²)

Expand to show TLE details & history

TLE from 9 hours ago
0 CE-SAT 1
1 42769U 17036E   25128.89612541  .00825271  42446-3  63681-3 0  9994
2 42769  97.0818 156.0624 0007150 195.3824 164.7247 16.15008790439220
Epoch: 2025-05-08T21:30Z
Definitive object data (Epoch: 2025-05-08T21:30:25.235Z)
Latitude
-0.00001°
Longitude
-33.50279°
Altitude
240.927 km
Speed
7.76 km/s
True Right ascension
10h 24m 14s
True Declination
0° 00' 00"
Sunlit
Object was in full shadow at TLE epoch
Visualization TLE readout
Latitude
-46.66427°
Longitude
-25.58665°
Altitude
251.803 km
Speed
7.753 km/s
Apparent Right ascension
06h 22m 21s
Apparent Declination
-64° 59' 55"
Sunlit
Object is in full shadow
Visualization observer readout
Local Sidereal Time
14:22:49
Azimuth
213.183° SW
Elevation
-48.09°
Doppler factor
1
Orbital elements
Apogee altitude
234.689 km
Perigee altitude
225.24 km
Semi-major axis
6,608.102 km
Eccentricity
0.000715
Inclination
97.0818°
RAAN
156.0624°
Arg. of periapsis
195.3824°
True anomaly
164.74627°
Mean anomaly
164.7247°
Eccentric anomaly
164.73549°
Mean motion
4.04043 °/min
BSTAR
0.00063681
Orbital period
89.1 mins
Loading maneuver chart data...
Loading SW <> Apogee altitude chart data...
Loading historical data...
Loading historical data...
Loading historical data...
Loading historical data...
Loading historical data...
Loading historical data...
Loading historical data...

CE-SAT 1 Visibility forecast

Observer location: undefined°, undefined°

CE-SAT 1 is not visible in the next 10 days
Span
Click to sort rows by Start time (UTC) header in descending order
Start Az.
Max El. time (UTC)
Max El. Az.
Max El.
End time (UTC)
End Az.
|